Weather History for Telluride, CO

Change the Weather History Date:

Sunday, May 26, 2013

  Actual Average Record
Temperature  
Mean Temperature 55 °F -  
Max Temperature 66 °F 62 °F 69 °F (2001)
Min Temperature 44 °F 39 °F 28 °F (1997)
Degree Days  
Heating Degree Days 10    
Growing Degree Days 5 (Base 50)    
Moisture  
Dew Point 14 °F    
Average Humidity 20    
Maximum Humidity 34    
Minimum Humidity 10    
Precipitation  
Precipitation 0.00 in - - ()
Sea Level Pressure  
Sea Level Pressure 30.23 in    
Wind  
Wind Speed 5 mph (SE)    
Max Wind Speed 16 mph    
Max Gust Speed 28 mph    
Visibility 10 miles    
Events      
Averages and records for this station are not official NWS values.
T = Trace of Precipitation, MM = Missing Value Source: NWS Daily Summary

Daily Weather History Graph

Daily Weather History Graph

Search for Another Location

Airport:

Trip Planner

Search our weather history database for the weather conditions in past years. The results will help you decide how hot, cold, wet, or windy it might be!

Date:

Astronomy

May. 26, 2013 Rise Set
Actual Time 5:53 AM MDT 8:24 PM MDT
Civil Twilight 5:23 AM MDT 8:54 PM MDT
Nautical Twilight 4:45 AM MDT 9:32 PM MDT
Astronomical Twilight 4:03 AM MDT 10:14 PM MDT
Moon 10:15 PM MDT (5/26) 7:25 AM MDT (5/26)
Length of Visible Light 15h 31m
Length of Day
14h 30m
Waning Gibbous, 96% of the Moon is Illuminated
May 26
Waning Gibbous
May 31
Last Quarter
Jun 8
New
Jun 16
First Quarter
Jun 23
Full

Hourly Weather History & Observations

Time (MDT) Temp. Windchill Dew Point Humidity Pressure Visibility Wind Dir Wind Speed Gust Speed Precip Events Conditions
12:15 AM 53.6 °F - 19.4 °F 26% 30.25 in 10.0 mi Calm Calm - N/A   Clear
12:35 AM 51.8 °F - 19.4 °F 28% 30.25 in 10.0 mi SW 5.8 mph - N/A   Clear
12:55 AM 51.8 °F - 19.4 °F 28% 30.25 in 10.0 mi Calm Calm - N/A   Clear
1:15 AM 51.8 °F - 19.4 °F 28% 30.25 in 10.0 mi East 3.5 mph - N/A   Clear
1:35 AM 50.0 °F - 17.6 °F 28% 30.26 in 10.0 mi South 5.8 mph - N/A   Clear
1:55 AM 50.0 °F - 17.6 °F 28% 30.26 in 10.0 mi SE 8.1 mph - N/A   Clear
2:15 AM 50.0 °F - 17.6 °F 28% 30.26 in 10.0 mi Calm Calm - N/A   Clear
2:35 AM 48.2 °F - 15.8 °F 27% 30.26 in 10.0 mi NNE 3.5 mph - N/A   Clear
2:55 AM 50.0 °F - 12.2 °F 22% 30.26 in 10.0 mi Calm Calm - N/A   Clear
3:15 AM 50.0 °F - 12.2 °F 22% 30.26 in 10.0 mi SSE 3.5 mph - N/A   Clear
3:35 AM 50.0 °F - 12.2 °F 22% 30.26 in 10.0 mi SSE 5.8 mph - N/A   Clear
3:55 AM 48.2 °F - 14.0 °F 25% 30.26 in 10.0 mi SE 5.8 mph - N/A   Clear
4:15 AM 46.4 °F 43.5 °F 12.2 °F 25% 30.25 in 10.0 mi East 5.8 mph - N/A   Clear
4:35 AM 46.4 °F 44.3 °F 12.2 °F 25% 30.25 in 10.0 mi ESE 4.6 mph - N/A   Clear
4:55 AM 44.6 °F 41.4 °F 14.0 °F 29% 30.25 in 10.0 mi SE 5.8 mph - N/A   Clear
5:15 AM 46.4 °F 44.3 °F 14.0 °F 27% 30.25 in 10.0 mi SE 4.6 mph - N/A   Clear
5:35 AM 44.6 °F 43.1 °F 14.0 °F 29% 30.25 in 10.0 mi SE 3.5 mph - N/A   Clear
5:55 AM 44.6 °F 41.4 °F 14.0 °F 29% 30.26 in 10.0 mi SE 5.8 mph - N/A   Clear
6:15 AM 44.6 °F 41.4 °F 14.0 °F 29% 30.26 in 10.0 mi ESE 5.8 mph - N/A   Clear
6:35 AM 44.6 °F 40.7 °F 15.8 °F 31% 30.27 in 10.0 mi SE 6.9 mph - N/A   Clear
6:55 AM 44.6 °F 42.2 °F 17.6 °F 34% 30.27 in 10.0 mi SE 4.6 mph - N/A   Clear
7:15 AM 44.6 °F 42.2 °F 15.8 °F 31% 30.26 in 10.0 mi ESE 4.6 mph - N/A   Clear
7:35 AM 46.4 °F 45.2 °F 17.6 °F 32% 30.27 in 10.0 mi SE 3.5 mph - N/A   Clear
7:55 AM 50.0 °F - 19.4 °F 30% 30.26 in 10.0 mi Calm Calm - N/A   Clear
8:15 AM 51.8 °F - 21.2 °F 30% 30.26 in 10.0 mi Calm Calm - N/A   Clear
8:35 AM 53.6 °F - 17.6 °F 24% 30.26 in 10.0 mi Calm Calm - N/A   Clear
8:55 AM 57.2 °F - 17.6 °F 21% 30.27 in 10.0 mi Calm Calm - N/A   Clear
9:15 AM 57.2 °F - 15.8 °F 20% 30.26 in 10.0 mi East 5.8 mph - N/A   Clear
9:35 AM 59.0 °F - 14.0 °F 17% 30.26 in 10.0 mi ENE 3.5 mph - N/A   Clear
9:55 AM 60.8 °F - 14.0 °F 16% 30.25 in 10.0 mi East 8.1 mph - N/A   Clear
10:15 AM 60.8 °F - 12.2 °F 15% 30.25 in 10.0 mi East 8.1 mph 19.6 mph N/A   Clear
10:35 AM 60.8 °F - 12.2 °F 15% 30.24 in 10.0 mi SE 9.2 mph 20.7 mph N/A   Clear
10:55 AM 62.6 °F - 12.2 °F 14% 30.24 in 10.0 mi ESE 9.2 mph - N/A   Clear
11:15 AM 60.8 °F - 12.2 °F 15% 30.24 in 10.0 mi ESE 5.8 mph 17.3 mph N/A   Clear
11:35 AM 62.6 °F - 14.0 °F 15% 30.24 in 10.0 mi SE 11.5 mph 20.7 mph N/A   Clear
11:55 AM 62.6 °F - 12.2 °F 14% 30.23 in 10.0 mi ESE 11.5 mph 16.1 mph N/A   Clear
12:15 PM 62.6 °F - 14.0 °F 15% 30.23 in 10.0 mi ESE 4.6 mph - N/A   Clear
12:35 PM 64.4 °F - 14.0 °F 14% 30.22 in 10.0 mi South 11.5 mph 20.7 mph N/A   Clear
12:55 PM 62.6 °F - 14.0 °F 15% 30.22 in 10.0 mi ESE 16.1 mph 21.9 mph N/A   Clear
1:15 PM 62.6 °F - 14.0 °F 15% 30.21 in 10.0 mi South 12.7 mph 17.3 mph N/A   Clear
1:35 PM 64.4 °F - 15.8 °F 15% 30.22 in 10.0 mi SSE 10.4 mph - N/A   Clear
1:55 PM 64.4 °F - 14.0 °F 14% 30.22 in 10.0 mi SSE 10.4 mph 19.6 mph N/A   Clear
2:15 PM 64.4 °F - 14.0 °F 14% 30.21 in 10.0 mi SSE 13.8 mph 21.9 mph N/A   Clear
2:35 PM 64.4 °F - 14.0 °F 14% 30.21 in 10.0 mi ESE 8.1 mph 13.8 mph N/A   Clear
2:55 PM 64.4 °F - 14.0 °F 14% 30.21 in 10.0 mi SE 13.8 mph 27.6 mph N/A   Clear
3:15 PM 64.4 °F - 12.2 °F 13% 30.21 in 10.0 mi SE 8.1 mph 24.2 mph N/A   Clear
3:35 PM 64.4 °F - 12.2 °F 13% 30.20 in 10.0 mi SSE 16.1 mph 23.0 mph N/A   Clear
3:55 PM 64.4 °F - 12.2 °F 13% 30.19 in 10.0 mi SE 15.0 mph 20.7 mph N/A   Clear
4:15 PM 66.2 °F - 12.2 °F 12% 30.19 in 10.0 mi SW 3.5 mph - N/A   Clear
4:35 PM 66.2 °F - 10.4 °F 11% 30.19 in 10.0 mi SSW 11.5 mph 17.3 mph N/A   Clear
4:55 PM 64.4 °F - 6.8 °F 10% 30.18 in 10.0 mi South 10.4 mph 23.0 mph N/A   Clear
5:15 PM 66.2 °F - 8.6 °F 11% 30.19 in 10.0 mi South 6.9 mph 18.4 mph N/A   Clear
5:35 PM 64.4 °F - 8.6 °F 11% 30.18 in 10.0 mi SSW 15.0 mph 23.0 mph N/A   Clear
5:55 PM 64.4 °F - 10.4 °F 12% 30.19 in 10.0 mi SW 5.8 mph 19.6 mph N/A   Clear
6:15 PM 64.4 °F - 12.2 °F 13% 30.18 in 10.0 mi SSW 8.1 mph 18.4 mph N/A   Clear
6:35 PM 64.4 °F - 10.4 °F 12% 30.19 in 10.0 mi SSW 10.4 mph 19.6 mph N/A   Clear
6:55 PM 62.6 °F - 10.4 °F 13% 30.19 in 10.0 mi SSW 11.5 mph 18.4 mph N/A   Clear
7:15 PM 62.6 °F - 10.4 °F 13% 30.19 in 10.0 mi SSW 10.4 mph 17.3 mph N/A   Clear
7:35 PM 62.6 °F - 10.4 °F 13% 30.19 in 10.0 mi South 9.2 mph - N/A   Clear
7:55 PM 60.8 °F - 10.4 °F 14% 30.20 in 10.0 mi South 5.8 mph 16.1 mph N/A   Clear
8:15 PM 60.8 °F - 10.4 °F 14% 30.20 in 10.0 mi SSW 4.6 mph 18.4 mph N/A   Clear
8:35 PM 60.8 °F - 10.4 °F 14% 30.20 in 10.0 mi South 3.5 mph - N/A   Clear
8:55 PM 59.0 °F - 10.4 °F 15% 30.21 in 10.0 mi South 3.5 mph - N/A   Clear
9:15 PM 57.2 °F - 10.4 °F 16% 30.21 in 10.0 mi Calm Calm - N/A   Clear
9:35 PM 57.2 °F - 8.6 °F 14% 30.21 in 10.0 mi Calm Calm - N/A   Clear
9:55 PM 55.4 °F - 10.4 °F 17% 30.22 in 10.0 mi SSE 4.6 mph - N/A   Clear
10:15 PM 55.4 °F - 12.2 °F 18% 30.22 in 10.0 mi Calm Calm - N/A   Clear
10:35 PM 53.6 °F - 12.2 °F 19% 30.23 in 10.0 mi SSE 3.5 mph - N/A   Clear
10:55 PM 51.8 °F - 14.0 °F 22% 30.23 in 10.0 mi East 3.5 mph - N/A   Clear
11:15 PM 51.8 °F - 14.0 °F 22% 30.23 in 10.0 mi South 4.6 mph - N/A   Clear
11:35 PM 50.0 °F - 14.0 °F 24% 30.22 in 10.0 mi Calm Calm - N/A   Clear
11:55 PM 50.0 °F - 14.0 °F 24% 30.22 in 10.0 mi East 4.6 mph - N/A   Clear